Location: *
(41.7492°S, 135.4150°W)
Time: 19:13:33
(UTC+00:00)

CZ-4C R/B - Pass Details

Date: 20 September 2021
Orbit: 463 x 632 km, 98.0° (Epoch: 16 October)

Event Time Altitude Azimuth Distance (km) Brightness Sun altitude
Rises 13:33:43 0° 173° (S) 2,960 7.3 -15.6°
Reaches altitude 10° 13:36:00 10° 177° (S) 2,034 6.4 -15.2°
Maximum altitude 13:40:18 50° 252° (WSW) 790 3.7 -14.4°
Enters shadow 13:44:08 12° 326° (NNW) 1,829 5.6 -13.7°
